This is the latest recevied weather packets stored in our database for station/object N8HON. If no packets are shown the sender has not sent any weather packets the latest 10 day(s).
| Time | Temp. | Humidity | Pressure | Rain* | Wind** | Luminosity | Snow |
|---|---|---|---|---|---|---|---|
| 1777760311 | 9.44° C | 42% | 1011.3 hPa | 0 mm | - | 72 W/m² | - |
| 1777760007 | 10° C | 44% | 1011.1 hPa | 0 mm | - | 90 W/m² | - |
| 1777759705 | 10° C | 44% | 1011.1 hPa | 0 mm | - | 101 W/m² | - |
| 1777759400 | 10° C | 44% | 1011 hPa | 0 mm | - | 88 W/m² | - |
| 1777759097 | 10° C | 42% | 1011.1 hPa | 0 mm | - | 86 W/m² | - |
| 1777758794 | 10° C | 47% | 1011 hPa | 0 mm | - | 112 W/m² | - |
| 1777758492 | 10.56° C | 44% | 1010.9 hPa | 0 mm | - | 149 W/m² | - |
| 1777758188 | 10° C | 43% | 1010.9 hPa | 0 mm | - | 195 W/m² | - |
| 1777757886 | 10° C | 45% | 1011 hPa | 0 mm | - | 119 W/m² | - |
| 1777757583 | 10° C | 44% | 1011.1 hPa | 0 mm | - | 114 W/m² | - |
| 1777757282 | 10° C | 44% | 1010.8 hPa | 0 mm | - | 110 W/m² | - |
| 1777756979 | 10.56° C | 42% | 1010.9 hPa | 0 mm | - | 130 W/m² | - |
| 1777756675 | 10.56° C | 43% | 1011 hPa | 0 mm | - | 149 W/m² | - |
| 1777756373 | 10.56° C | 43% | 1010.7 hPa | 0 mm | - | 522 W/m² | - |
| 1777756070 | 10° C | 43% | 1010.9 hPa | 0 mm | - | 165 W/m² | - |
| 1777755767 | 10.56° C | 43% | 1010.7 hPa | 0 mm | - | 150 W/m² | - |
| 1777755464 | 10.56° C | 44% | 1010.9 hPa | 0 mm | - | 188 W/m² | - |
| 1777755159 | 10.56° C | 44% | 1010.8 hPa | 0 mm | - | 248 W/m² | - |
| 1777754857 | 10° C | 43% | 1011.1 hPa | 0 mm | - | 198 W/m² | - |
| 1777754554 | 10° C | 44% | 1010.9 hPa | 0 mm | - | 144 W/m² | - |
| 1777754252 | 10° C | 45% | 1010.9 hPa | 0 mm | - | 145 W/m² | - |
| 1777753951 | 10.56° C | 42% | 1011.1 hPa | 0 mm | - | 160 W/m² | - |
| 1777753649 | 10° C | 44% | 1011.2 hPa | 0 mm | - | 232 W/m² | - |
| 1777753348 | 10° C | 45% | 1011 hPa | 0 mm | - | 296 W/m² | - |
| 1777753045 | 10° C | 45% | 1011.2 hPa | 0 mm | - | 190 W/m² | - |
* Rain latest hour (hover to see other rain measurements)
** Current wind speed in m/s (hover to see current wind gust speed)